| time (UTC) | temp F | wind direction | speed MPH | gust MPH | rain 1hr in | rain 24hr in | rain mn in | humidity % | barometer mb |
| 20260506215555 | 55 | 261 | 2.0 | 7.0 | 0.00 | 0.00 | 0.00 | 53 | 1006.6 |
| 20260506215056 | 55 | 250 | 1.0 | 6.0 | 0.00 | 0.00 | 0.00 | 54 | 1006.6 |
| 20260506214554 | 55 | 224 | 2.0 | 5.0 | 0.00 | 0.00 | 0.00 | 54 | 1006.6 |
| 20260506214051 | 55 | 221 | 1.0 | 5.0 | 0.00 | 0.00 | 0.00 | 54 | 1006.6 |
| 20260506213551 | 55 | 229 | 2.0 | 8.0 | 0.00 | 0.00 | 0.00 | 53 | 1006.6 |
| 20260506213055 | 55 | 239 | 2.0 | 8.0 | 0.00 | 0.00 | 0.00 | 53 | 1006.6 |
| 20260506212552 | 56 | 243 | 2.0 | 8.0 | 0.00 | 0.00 | 0.00 | 52 | 1006.5 |
| 20260506212055 | 56 | 237 | 2.0 | 9.0 | 0.00 | 0.00 | 0.00 | 52 | 1006.7 |
| 20260506211555 | 56 | 230 | 2.0 | 9.0 | 0.00 | 0.00 | 0.00 | 51 | 1006.6 |
| 20260506211053 | 56 | 249 | 3.0 | 9.0 | 0.00 | 0.00 | 0.00 | 51 | 1006.6 |
| 20260506210553 | 56 | 242 | 2.0 | 7.0 | 0.00 | 0.00 | 0.00 | 52 | 1006.6 |
| 20260506210058 | 56 | 247 | 2.0 | 7.0 | 0.00 | 0.00 | 0.00 | 52 | 1006.6 |
| 20260506205556 | 56 | 0 | 0.0 | 7.0 | 0.00 | 0.00 | 0.00 | 53 | 1006.5 |
| 20260506205051 | 56 | 238 | 2.0 | 6.0 | 0.00 | 0.00 | 0.00 | 52 | 1006.5 |
| 20260506204556 | 56 | 225 | 3.0 | 6.0 | 0.00 | 0.00 | 0.00 | 52 | 1006.5 |
| 20260506204051 | 56 | 217 | 1.0 | 5.0 | 0.00 | 0.00 | 0.00 | 52 | 1006.4 |
| 20260506203552 | 56 | 214 | 2.0 | 5.0 | 0.00 | 0.00 | 0.00 | 52 | 1006.3 |
| 20260506203105 | 56 | 223 | 2.0 | 8.0 | 0.00 | 0.00 | 0.00 | 52 | 1006.3 |
| 20260506202550 | 56 | 186 | 2.0 | 8.0 | 0.00 | 0.00 | 0.00 | 51 | 1006.5 |
| 20260506202050 | 57 | 209 | 3.0 | 8.0 | 0.00 | 0.00 | 0.00 | 50 | 1006.6 |
| 20260506201552 | 57 | 238 | 3.0 | 8.0 | 0.00 | 0.00 | 0.00 | 50 | 1006.5 |
| 20260506201052 | 57 | 224 | 2.0 | 5.0 | 0.00 | 0.00 | 0.00 | 50 | 1006.6 |
| 20260506200557 | 57 | 211 | 2.0 | 6.0 | 0.00 | 0.00 | 0.00 | 51 | 1006.7 |
| 20260506200057 | 57 | 0 | 2.0 | 6.0 | 0.00 | 0.00 | 0.00 | 50 | 1006.8 |
| 20260506195552 | 57 | 248 | 2.0 | 6.0 | 0.00 | 0.00 | 0.00 | 50 | 1006.9 |
| 20260506195053 | 57 | 223 | 2.0 | 6.0 | 0.00 | 0.00 | 0.00 | 50 | 1006.9 |
| 20260506194554 | 57 | 0 | 2.0 | 7.0 | 0.00 | 0.00 | 0.00 | 50 | 1006.9 |
| 20260506194051 | 57 | 197 | 2.0 | 7.0 | 0.00 | 0.00 | 0.00 | 49 | 1007.0 |
| 20260506193551 | 57 | 283 | 2.0 | 8.0 | 0.00 | 0.00 | 0.00 | 50 | 1007.1 |
| 20260506193104 | 57 | 258 | 3.0 | 8.0 | 0.00 | 0.00 | 0.00 | 50 | 1007.0 |
| 20260506192549 | 57 | 234 | 3.0 | 8.0 | 0.00 | 0.00 | 0.00 | 49 | 1007.1 |
| 20260506192051 | 57 | 280 | 1.0 | 9.0 | 0.00 | 0.00 | 0.00 | 50 | 1007.1 |
| 20260506191553 | 57 | 294 | 2.0 | 9.0 | 0.00 | 0.00 | 0.00 | 50 | 1007.1 |
| 20260506191052 | 56 | 261 | 0.0 | 4.0 | 0.00 | 0.00 | 0.00 | 52 | 1007.1 |
| 20260506190552 | 56 | 261 | 1.0 | 8.0 | 0.00 | 0.00 | 0.00 | 53 | 1007.2 |
| 20260506190054 | 55 | 261 | 1.0 | 9.0 | 0.00 | 0.00 | 0.00 | 56 | 1007.3 |
| 20260506185552 | 54 | 250 | 3.0 | 9.0 | 0.00 | 0.00 | 0.00 | 56 | 1007.2 |
| 20260506185049 | 54 | 231 | 3.0 | 7.0 | 0.00 | 0.00 | 0.00 | 56 | 1007.1 |
| 20260506184551 | 54 | 232 | 3.0 | 8.0 | 0.00 | 0.00 | 0.00 | 56 | 1007.3 |
| 20260506184052 | 54 | 248 | 2.0 | 11.0 | 0.00 | 0.00 | 0.00 | 57 | 1007.3 |
| 20260506183554 | 54 | 259 | 1.0 | 11.0 | 0.00 | 0.00 | 0.00 | 57 | 1007.3 |
| 20260506183105 | 54 | 277 | 1.0 | 5.0 | 0.00 | 0.00 | 0.00 | 58 | 1007.3 |
| 20260506182553 | 53 | 225 | 2.0 | 8.0 | 0.00 | 0.00 | 0.00 | 59 | 1007.3 |
| 20260506182052 | 53 | 226 | 3.0 | 8.0 | 0.00 | 0.00 | 0.00 | 59 | 1007.4 |
| 20260506181558 | 53 | 267 | 2.0 | 10.0 | 0.00 | 0.00 | 0.00 | 60 | 1007.4 |
| 20260506181052 | 54 | 236 | 2.0 | 10.0 | 0.00 | 0.00 | 0.00 | 58 | 1007.3 |
| 20260506180553 | 53 | 280 | 2.0 | 10.0 | 0.00 | 0.00 | 0.00 | 60 | 1007.4 |
| 20260506180058 | 53 | 235 | 3.0 | 7.0 | 0.00 | 0.00 | 0.00 | 60 | 1007.5 |
| 20260506175549 | 53 | 0 | 2.0 | 7.0 | 0.00 | 0.00 | 0.00 | 59 | 1007.6 |
| 20260506175054 | 54 | 254 | 2.0 | 7.0 | 0.00 | 0.00 | 0.00 | 59 | 1007.5 |
| 20260506174553 | 53 | 238 | 2.0 | 5.0 | 0.00 | 0.00 | 0.00 | 61 | 1007.6 |
| 20260506174052 | 53 | 238 | 2.0 | 6.0 | 0.00 | 0.00 | 0.00 | 61 | 1007.6 |
| 20260506173552 | 52 | 238 | 2.0 | 7.0 | 0.00 | 0.00 | 0.00 | 64 | 1007.7 |
| 20260506173059 | 51 | 233 | 2.0 | 7.0 | 0.00 | 0.00 | 0.00 | 65 | 1007.8 |
| 20260506172552 | 51 | 210 | 2.0 | 5.0 | 0.00 | 0.00 | 0.00 | 66 | 1007.6 |
| 20260506172053 | 51 | 219 | 3.0 | 7.0 | 0.00 | 0.00 | 0.00 | 66 | 1007.7 |
| 20260506171550 | 51 | 186 | 2.0 | 7.0 | 0.00 | 0.00 | 0.00 | 66 | 1007.7 |
| 20260506171052 | 50 | 236 | 1.0 | 7.0 | 0.00 | 0.00 | 0.00 | 66 | 1007.6 |
| 20260506170549 | 50 | 227 | 1.0 | 7.0 | 0.00 | 0.00 | 0.00 | 66 | 1007.6 |
| 20260506170106 | 50 | 275 | 1.0 | 6.0 | 0.00 | 0.00 | 0.00 | 64 | 1007.6 |
| 20260506165551 | 51 | 275 | 2.0 | 6.0 | 0.00 | 0.00 | 0.00 | 63 | 1007.8 |
| 20260506165052 | 51 | 275 | 1.0 | 4.0 | 0.00 | 0.00 | 0.00 | 61 | 1008.0 |
| 20260506164616 | 51 | 275 | 1.0 | 6.0 | 0.00 | 0.00 | 0.00 | 60 | 1007.9 |
| 20260506164053 | 51 | 278 | 0.0 | 6.0 | 0.00 | 0.00 | 0.00 | 62 | 1007.9 |
| 20260506163549 | 51 | 278 | 1.0 | 6.0 | 0.00 | 0.00 | 0.00 | 60 | 1008.1 |
| 20260506163101 | 51 | 269 | 1.0 | 6.0 | 0.00 | 0.00 | 0.00 | 60 | 1008.0 |
| 20260506162552 | 51 | 190 | 1.0 | 6.0 | 0.00 | 0.00 | 0.00 | 61 | 1007.9 |
| 20260506162049 | 51 | 0 | 0.0 | 4.0 | 0.00 | 0.00 | 0.00 | 60 | 1007.9 |
| 20260506161555 | 51 | 0 | 1.0 | 4.0 | 0.00 | 0.00 | 0.00 | 62 | 1008.1 |
| 20260506161058 | 51 | 265 | 1.0 | 6.0 | 0.00 | 0.00 | 0.00 | 61 | 1008.1 |
| 20260506160549 | 51 | 0 | 0.0 | 6.0 | 0.00 | 0.00 | 0.00 | 62 | 1008.2 |
| 20260506160105 | 51 | 266 | 2.0 | 4.0 | 0.00 | 0.00 | 0.00 | 62 | 1008.1 |
| 20260506155552 | 51 | 268 | 1.0 | 6.0 | 0.00 | 0.00 | 0.00 | 62 | 1008.1 |
| 20260506155053 | 51 | 268 | 1.0 | 6.0 | 0.00 | 0.00 | 0.00 | 62 | 1008.1 |
| 20260506154559 | 51 | 0 | 0.0 | 6.0 | 0.00 | 0.00 | 0.00 | 64 | 1008.2 |
| 20260506154054 | 50 | 268 | 2.0 | 6.0 | 0.00 | 0.00 | 0.00 | 64 | 1008.2 |
| 20260506153556 | 50 | 269 | 1.0 | 4.0 | 0.00 | 0.00 | 0.00 | 63 | 1008.3 |
| 20260506153058 | 51 | 269 | 0.0 | 4.0 | 0.00 | 0.00 | 0.00 | 63 | 1008.3 |
| 20260506152551 | 50 | 0 | 0.0 | 4.0 | 0.00 | 0.00 | 0.00 | 63 | 1008.2 |
| 20260506152052 | 50 | 269 | 0.0 | 6.0 | 0.00 | 0.00 | 0.00 | 63 | 1008.3 |
| 20260506151555 | 50 | 267 | 1.0 | 6.0 | 0.00 | 0.00 | 0.00 | 63 | 1008.2 |
| 20260506151049 | 50 | 0 | 0.0 | 4.0 | 0.00 | 0.00 | 0.00 | 65 | 1008.3 |
| 20260506150549 | 50 | 241 | 0.0 | 4.0 | 0.00 | 0.00 | 0.00 | 64 | 1008.5 |
| 20260506145549 | 49 | 240 | 0.0 | 4.0 | 0.00 | 0.00 | 0.00 | 65 | 1008.6 |
| 20260506145053 | 49 | 0 | 1.0 | 7.0 | 0.00 | 0.00 | 0.00 | 65 | 1008.6 |
| 20260506144555 | 49 | 239 | 1.0 | 7.0 | 0.00 | 0.00 | 0.00 | 65 | 1008.6 |
| 20260506144049 | 49 | 240 | 1.0 | 7.0 | 0.00 | 0.00 | 0.00 | 65 | 1008.5 |
| 20260506143553 | 49 | 0 | 2.0 | 5.0 | 0.00 | 0.00 | 0.00 | 65 | 1008.6 |
| 20260506143056 | 49 | 253 | 1.0 | 5.0 | 0.00 | 0.00 | 0.00 | 64 | 1008.6 |
| 20260506142553 | 49 | 254 | 0.0 | 7.0 | 0.00 | 0.00 | 0.00 | 64 | 1008.5 |
| 20260506142052 | 49 | 254 | 2.0 | 7.0 | 0.00 | 0.00 | 0.00 | 64 | 1008.5 |
| 20260506141552 | 49 | 253 | 1.0 | 7.0 | 0.00 | 0.00 | 0.00 | 64 | 1008.4 |
| 20260506141052 | 49 | 0 | 1.0 | 6.0 | 0.00 | 0.00 | 0.00 | 64 | 1008.2 |
| 20260506140550 | 49 | 259 | 2.0 | 6.0 | 0.00 | 0.00 | 0.00 | 64 | 1008.3 |
| 20260506140056 | 49 | 0 | 0.0 | 6.0 | 0.00 | 0.00 | 0.00 | 65 | 1008.3 |
| 20260506135549 | 49 | 250 | 1.0 | 6.0 | 0.00 | 0.01 | 0.00 | 64 | 1008.2 |
| 20260506135049 | 49 | 0 | 1.0 | 6.0 | 0.00 | 0.01 | 0.00 | 65 | 1008.3 |
| 20260506134552 | 49 | 0 | 0.0 | 4.0 | 0.00 | 0.01 | 0.00 | 65 | 1008.3 |
| 20260506134052 | 49 | 233 | 0.0 | 5.0 | 0.00 | 0.01 | 0.00 | 64 | 1008.2 |
| 20260506133552 | 49 | 233 | 2.0 | 5.0 | 0.00 | 0.01 | 0.00 | 64 | 1008.2 |
| 20260506133109 | 49 | 234 | 1.0 | 4.0 | 0.00 | 0.01 | 0.00 | 64 | 1008.2 |
| 20260506132549 | 49 | 0 | 1.0 | 4.0 | 0.00 | 0.01 | 0.00 | 63 | 1008.2 |
| 20260506132052 | 49 | 234 | 1.0 | 7.0 | 0.00 | 0.01 | 0.00 | 63 | 1008.2 |
| 20260506131608 | 49 | 234 | 2.0 | 7.0 | 0.00 | 0.01 | 0.00 | 62 | 1008.2 |
| 20260506131053 | 49 | 229 | 1.0 | 4.0 | 0.00 | 0.01 | 0.00 | 60 | 1008.3 |
| 20260506130553 | 49 | 0 | 0.0 | 3.0 | 0.00 | 0.01 | 0.00 | 55 | 1008.1 |
| 20260506130058 | 49 | 0 | 0.0 | 2.0 | 0.00 | 0.01 | 0.00 | 54 | 1008.1 |
| 20260506125551 | 49 | 0 | 0.0 | 2.0 | 0.00 | 0.01 | 0.00 | 53 | 1008.2 |
| 20260506125049 | 49 | 0 | 0.0 | 3.0 | 0.00 | 0.01 | 0.00 | 53 | 1008.3 |
| 20260506124552 | 49 | 0 | 0.0 | 3.0 | 0.00 | 0.01 | 0.00 | 52 | 1008.2 |
| 20260506124051 | 49 | 196 | 0.0 | 5.0 | 0.00 | 0.01 | 0.00 | 52 | 1008.1 |
| 20260506123551 | 49 | 192 | 0.0 | 5.0 | 0.00 | 0.01 | 0.00 | 52 | 1008.1 |
| 20260506123057 | 49 | 0 | 0.0 | 4.0 | 0.00 | 0.01 | 0.00 | 52 | 1008.1 |
| 20260506122550 | 49 | 0 | 1.0 | 4.0 | 0.00 | 0.01 | 0.00 | 51 | 1008.2 |
| 20260506122052 | 49 | 292 | 1.0 | 4.0 | 0.00 | 0.01 | 0.00 | 54 | 1008.3 |
| 20260506121600 | 49 | 0 | 0.0 | 1.0 | 0.00 | 0.01 | 0.00 | 55 | 1008.2 |
| 20260506121049 | 49 | 0 | 0.0 | 3.0 | 0.00 | 0.01 | 0.00 | 56 | 1008.2 |
| 20260506120553 | 49 | 0 | 0.0 | 3.0 | 0.00 | 0.01 | 0.00 | 56 | 1008.2 |
| 20260506120103 | 49 | 293 | 0.0 | 1.0 | 0.00 | 0.01 | 0.00 | 57 | 1008.2 |
| 20260506115555 | 48 | 0 | 0.0 | 1.0 | 0.00 | 0.01 | 0.00 | 57 | 1008.3 |
| 20260506115053 | 48 | 0 | 0.0 | 1.0 | 0.00 | 0.01 | 0.00 | 58 | 1008.2 |
| 20260506114600 | 48 | 293 | 0.0 | 1.0 | 0.00 | 0.01 | 0.00 | 59 | 1008.3 |
| 20260506114056 | 48 | 0 | 0.0 | 1.0 | 0.00 | 0.01 | 0.00 | 59 | 1008.3 |
| 20260506113551 | 48 | 0 | 0.0 | 1.0 | 0.00 | 0.01 | 0.00 | 59 | 1008.3 |
| 20260506113051 | 48 | 293 | 0.0 | 1.0 | 0.00 | 0.01 | 0.00 | 59 | 1008.2 |
| 20260506112553 | 48 | 0 | 0.0 | 1.0 | 0.00 | 0.01 | 0.00 | 60 | 1008.1 |
| 20260506112049 | 48 | 0 | 0.0 | 1.0 | 0.00 | 0.01 | 0.00 | 60 | 1008.0 |
| 20260506111557 | 48 | 293 | 0.0 | 2.0 | 0.00 | 0.01 | 0.00 | 60 | 1008.0 |
| 20260506111052 | 48 | 0 | 0.0 | 2.0 | 0.00 | 0.01 | 0.00 | 59 | 1008.1 |
| 20260506110552 | 48 | 0 | 0.0 | 1.0 | 0.00 | 0.01 | 0.00 | 59 | 1008.1 |
| 20260506110109 | 48 | 0 | 0.0 | 1.0 | 0.00 | 0.01 | 0.00 | 59 | 1007.9 |
| 20260506105552 | 48 | 0 | 0.0 | 1.0 | 0.00 | 0.01 | 0.00 | 59 | 1008.0 |
| 20260506105052 | 48 | 0 | 0.0 | 1.0 | 0.00 | 0.01 | 0.00 | 58 | 1008.0 |
| 20260506104608 | 48 | 0 | 0.0 | 1.0 | 0.00 | 0.01 | 0.00 | 58 | 1008.0 |
| 20260506104054 | 48 | 0 | 0.0 | 1.0 | 0.00 | 0.01 | 0.00 | 58 | 1007.9 |
| 20260506103553 | 48 | 0 | 0.0 | 1.0 | 0.00 | 0.01 | 0.00 | 58 | 1007.9 |
| 20260506103055 | 48 | 0 | 0.0 | 0.0 | 0.00 | 0.01 | 0.00 | 58 | 1008.0 |
| 20260506102556 | 48 | 0 | 0.0 | 0.0 | 0.00 | 0.01 | 0.00 | 57 | 1007.9 |
| 20260506102056 | 48 | 0 | 0.0 | 1.0 | 0.00 | 0.01 | 0.00 | 57 | 1007.9 |
| 20260506101554 | 48 | 0 | 0.0 | 1.0 | 0.00 | 0.01 | 0.00 | 57 | 1008.2 |
| 20260506101052 | 48 | 0 | 0.0 | 1.0 | 0.00 | 0.01 | 0.00 | 56 | 1008.2 |
| 20260506100552 | 48 | 0 | 0.0 | 1.0 | 0.00 | 0.01 | 0.00 | 56 | 1008.2 |
| 20260506095552 | 48 | 0 | 0.0 | 2.0 | 0.00 | 0.01 | 0.00 | 55 | 1008.4 |
| 20260506095049 | 48 | 0 | 0.0 | 2.0 | 0.00 | 0.01 | 0.00 | 55 | 1008.4 |
| 20260506094600 | 48 | 0 | 0.0 | 2.0 | 0.00 | 0.01 | 0.00 | 54 | 1008.1 |
| 20260506094053 | 48 | 0 | 0.0 | 1.0 | 0.00 | 0.01 | 0.00 | 54 | 1007.9 |
| 20260506093553 | 49 | 0 | 0.0 | 1.0 | 0.00 | 0.01 | 0.00 | 55 | 1007.8 |
| 20260506093056 | 49 | 0 | 0.0 | 1.0 | 0.00 | 0.01 | 0.00 | 54 | 1007.8 |
| 20260506092553 | 49 | 0 | 0.0 | 1.0 | 0.00 | 0.01 | 0.00 | 54 | 1008.0 |
| 20260506092053 | 49 | 0 | 0.0 | 1.0 | 0.00 | 0.01 | 0.00 | 54 | 1007.9 |
| 20260506091552 | 49 | 0 | 0.0 | 1.0 | 0.00 | 0.01 | 0.00 | 54 | 1007.9 |
| 20260506091053 | 49 | 0 | 0.0 | 1.0 | 0.00 | 0.01 | 0.00 | 54 | 1007.8 |
| 20260506090552 | 49 | 0 | 0.0 | 1.0 | 0.00 | 0.01 | 0.00 | 53 | 1007.8 |
| 20260506090053 | 49 | 0 | 0.0 | 2.0 | 0.00 | 0.01 | 0.00 | 53 | 1007.8 |
| 20260506085552 | 49 | 0 | 0.0 | 2.0 | 0.00 | 0.01 | 0.00 | 52 | 1007.8 |
| 20260506085051 | 49 | 0 | 0.0 | 2.0 | 0.00 | 0.01 | 0.00 | 53 | 1007.8 |
| 20260506084618 | 49 | 0 | 0.0 | 2.0 | 0.00 | 0.01 | 0.00 | 53 | 1007.9 |
| 20260506084052 | 49 | 0 | 0.0 | 2.0 | 0.00 | 0.01 | 0.00 | 53 | 1007.9 |
| 20260506083552 | 49 | 0 | 0.0 | 2.0 | 0.00 | 0.01 | 0.00 | 53 | 1008.1 |
| 20260506083053 | 49 | 0 | 0.0 | 2.0 | 0.00 | 0.01 | 0.00 | 53 | 1008.1 |
| 20260506082555 | 49 | 0 | 0.0 | 2.0 | 0.00 | 0.01 | 0.00 | 52 | 1008.1 |
| 20260506082051 | 49 | 0 | 0.0 | 1.0 | 0.00 | 0.01 | 0.00 | 53 | 1008.1 |
| 20260506081557 | 49 | 0 | 0.0 | 3.0 | 0.00 | 0.01 | 0.00 | 52 | 1008.0 |
| 20260506081052 | 49 | 0 | 0.0 | 3.0 | 0.00 | 0.01 | 0.00 | 52 | 1007.9 |
| 20260506080554 | 49 | 0 | 0.0 | 1.0 | 0.00 | 0.01 | 0.00 | 52 | 1007.8 |
| 20260506073054 | 49 | 0 | 0.0 | 3.0 | 0.00 | 0.01 | 0.00 | 52 | 1008.0 |
| 20260506072554 | 49 | 293 | 0.0 | 3.0 | 0.00 | 0.01 | 0.00 | 52 | 1008.1 |
| 20260506072052 | 50 | 0 | 0.0 | 4.0 | 0.00 | 0.01 | 0.00 | 52 | 1008.1 |
| 20260506071554 | 50 | 0 | 0.0 | 4.0 | 0.00 | 0.01 | 0.00 | 52 | 1008.2 |
| 20260506071051 | 50 | 0 | 0.0 | 4.0 | 0.00 | 0.01 | 0.00 | 52 | 1008.2 |
| 20260506070552 | 50 | 293 | 0.0 | 3.0 | 0.00 | 0.01 | 0.00 | 52 | 1008.0 |
| 20260506062053 | 50 | 0 | 0.0 | 4.0 | 0.00 | 0.01 | 0.00 | 51 | 1007.7 |
| 20260506061555 | 50 | 0 | 0.0 | 4.0 | 0.00 | 0.01 | 0.00 | 51 | 1007.8 |
| 20260506061052 | 50 | 0 | 2.0 | 5.0 | 0.00 | 0.01 | 0.00 | 51 | 1008.0 |
| 20260506060550 | 50 | 293 | 0.0 | 5.0 | 0.00 | 0.01 | 0.00 | 51 | 1007.8 |
| 20260506051054 | 51 | 0 | 0.0 | 8.0 | 0.00 | 0.01 | 0.00 | 48 | 1007.8 |
| 20260506050553 | 52 | 313 | 1.0 | 8.0 | 0.00 | 0.01 | 0.00 | 48 | 1007.8 |
| 20260506045054 | 52 | 0 | 0.0 | 8.0 | 0.00 | 0.01 | 0.00 | 45 | 1007.4 |
| 20260506044553 | 52 | 0 | 0.0 | 8.0 | 0.00 | 0.01 | 0.00 | 45 | 1007.5 |
| 20260506044052 | 52 | 320 | 1.0 | 8.0 | 0.00 | 0.01 | 0.00 | 45 | 1007.4 |
| 20260506043552 | 52 | 0 | 1.0 | 7.0 | 0.00 | 0.01 | 0.00 | 45 | 1007.5 |
| 20260506043056 | 52 | 281 | 1.0 | 7.0 | 0.00 | 0.01 | 0.00 | 44 | 1007.5 |
| 20260506042550 | 52 | 329 | 0.0 | 8.0 | 0.00 | 0.01 | 0.00 | 44 | 1007.4 |
| 20260506042056 | 52 | 342 | 1.0 | 8.0 | 0.00 | 0.01 | 0.00 | 44 | 1007.5 |
| 20260506041606 | 52 | 281 | 1.0 | 8.0 | 0.00 | 0.01 | 0.00 | 44 | 1007.4 |
| 20260506041052 | 52 | 293 | 1.0 | 4.0 | 0.00 | 0.01 | 0.00 | 44 | 1007.4 |
| 20260506040553 | 52 | 295 | 0.0 | 10.0 | 0.00 | 0.01 | 0.00 | 44 | 1007.4 |
| 20260506040059 | 52 | 295 | 0.0 | 10.0 | 0.00 | 0.01 | 0.00 | 44 | 1007.3 |
| 20260506035554 | 52 | 294 | 3.0 | 10.0 | 0.00 | 0.01 | 0.01 | 44 | 1007.4 |
| 20260506035052 | 52 | 296 | 2.0 | 10.0 | 0.00 | 0.01 | 0.01 | 44 | 1007.3 |
| 20260506034557 | 52 | 0 | 3.0 | 10.0 | 0.00 | 0.01 | 0.01 | 44 | 1007.3 |
| 20260506034052 | 53 | 295 | 3.0 | 10.0 | 0.00 | 0.01 | 0.01 | 44 | 1007.3 |
| 20260506033552 | 53 | 292 | 2.0 | 11.0 | 0.00 | 0.01 | 0.01 | 44 | 1007.3 |
| 20260506033054 | 53 | 288 | 2.0 | 11.0 | 0.00 | 0.01 | 0.01 | 44 | 1007.3 |
| 20260506032551 | 53 | 288 | 2.0 | 11.0 | 0.00 | 0.01 | 0.01 | 44 | 1007.2 |
| 20260506032054 | 53 | 270 | 4.0 | 11.0 | 0.00 | 0.01 | 0.01 | 43 | 1007.2 |
| 20260506031555 | 53 | 287 | 2.0 | 8.0 | 0.00 | 0.01 | 0.01 | 44 | 1007.2 |
| 20260506031054 | 53 | 286 | 2.0 | 8.0 | 0.00 | 0.01 | 0.01 | 44 | 1007.1 |
| 20260506030553 | 53 | 0 | 0.0 | 8.0 | 0.00 | 0.01 | 0.01 | 44 | 1007.0 |
| 20260506030057 | 53 | 309 | 1.0 | 10.0 | 0.00 | 0.01 | 0.01 | 44 | 1006.9 |
| 20260506025551 | 53 | 0 | 1.0 | 10.0 | 0.00 | 0.01 | 0.01 | 44 | 1006.9 |
| 20260506025056 | 53 | 294 | 1.0 | 9.0 | 0.00 | 0.01 | 0.01 | 44 | 1006.9 |
| 20260506024553 | 53 | 296 | 0.0 | 7.0 | 0.00 | 0.01 | 0.01 | 43 | 1006.9 |
| 20260506024053 | 53 | 296 | 1.0 | 8.0 | 0.00 | 0.01 | 0.01 | 43 | 1006.8 |
| 20260506023550 | 54 | 294 | 1.0 | 8.0 | 0.00 | 0.01 | 0.01 | 43 | 1006.8 |
| 20260506023106 | 54 | 293 | 1.0 | 8.0 | 0.00 | 0.01 | 0.01 | 43 | 1006.8 |
| 20260506022553 | 54 | 284 | 0.0 | 11.0 | 0.00 | 0.01 | 0.01 | 43 | 1006.8 |
| 20260506022053 | 54 | 282 | 1.0 | 11.0 | 0.00 | 0.01 | 0.01 | 43 | 1006.7 |
| 20260506021612 | 54 | 281 | 1.0 | 5.0 | 0.00 | 0.01 | 0.01 | 43 | 1006.6 |
| 20260506021053 | 54 | 290 | 1.0 | 7.0 | 0.00 | 0.01 | 0.01 | 43 | 1006.7 |
| 20260506020552 | 54 | 340 | 1.0 | 8.0 | 0.00 | 0.01 | 0.01 | 43 | 1006.7 |
| 20260506020052 | 54 | 281 | 0.0 | 9.0 | 0.00 | 0.01 | 0.01 | 44 | 1006.7 |
| 20260506015552 | 54 | 0 | 1.0 | 9.0 | 0.00 | 0.01 | 0.01 | 43 | 1006.6 |
| 20260506015055 | 54 | 303 | 2.0 | 9.0 | 0.00 | 0.01 | 0.01 | 43 | 1006.6 |
| 20260506014553 | 54 | 286 | 3.0 | 9.0 | 0.00 | 0.01 | 0.01 | 43 | 1006.6 |
| 20260506014054 | 54 | 279 | 1.0 | 9.0 | 0.00 | 0.01 | 0.01 | 43 | 1006.6 |
| 20260506013553 | 54 | 326 | 1.0 | 13.0 | 0.00 | 0.01 | 0.01 | 44 | 1006.5 |
| 20260506013107 | 54 | 294 | 3.0 | 13.0 | 0.00 | 0.01 | 0.01 | 43 | 1006.5 |
| 20260506012551 | 54 | 292 | 1.0 | 11.0 | 0.00 | 0.01 | 0.01 | 44 | 1006.3 |
| 20260506012053 | 55 | 269 | 2.0 | 8.0 | 0.00 | 0.01 | 0.01 | 44 | 1006.2 |
| 20260506011614 | 55 | 286 | 2.0 | 8.0 | 0.00 | 0.01 | 0.01 | 43 | 1006.0 |
| 20260506011049 | 55 | 0 | 2.0 | 8.0 | 0.00 | 0.01 | 0.01 | 44 | 1005.9 |
| 20260506010553 | 55 | 291 | 2.0 | 9.0 | 0.00 | 0.01 | 0.01 | 44 | 1005.9 |
| 20260506010058 | 55 | 279 | 2.0 | 11.0 | 0.00 | 0.01 | 0.01 | 43 | 1005.6 |
| 20260506005555 | 55 | 257 | 3.0 | 11.0 | 0.00 | 0.01 | 0.01 | 44 | 1005.5 |
| 20260506005052 | 55 | 0 | 3.0 | 13.0 | 0.00 | 0.01 | 0.01 | 44 | 1005.5 |
| 20260506004555 | 55 | 0 | 3.0 | 14.0 | 0.00 | 0.01 | 0.01 | 44 | 1005.4 |
| 20260506004053 | 55 | 274 | 1.0 | 14.0 | 0.00 | 0.01 | 0.01 | 44 | 1005.3 |
| 20260506003553 | 55 | 296 | 2.0 | 12.0 | 0.00 | 0.01 | 0.01 | 44 | 1005.1 |
| 20260506003054 | 55 | 341 | 3.0 | 14.0 | 0.00 | 0.01 | 0.01 | 44 | 1005.0 |
| 20260506002553 | 56 | 302 | 2.0 | 14.0 | 0.00 | 0.01 | 0.01 | 44 | 1004.9 |
| 20260506002052 | 56 | 290 | 2.0 | 15.0 | 0.00 | 0.01 | 0.01 | 45 | 1004.9 |
| 20260506001555 | 56 | 289 | 5.0 | 15.0 | 0.00 | 0.01 | 0.01 | 45 | 1004.9 |
| 20260506001054 | 56 | 301 | 5.0 | 14.0 | 0.00 | 0.01 | 0.01 | 46 | 1004.8 |
| 20260506000554 | 56 | 310 | 4.0 | 14.0 | 0.00 | 0.01 | 0.01 | 45 | 1004.7 |
| 20260506000055 | 56 | 327 | 2.0 | 14.0 | 0.00 | 0.01 | 0.01 | 46 | 1004.8 |
| 20260505235553 | 57 | 297 | 4.0 | 14.0 | 0.00 | 0.01 | 0.01 | 45 | 1004.8 |
| 20260505235053 | 57 | 265 | 3.0 | 12.0 | 0.00 | 0.01 | 0.01 | 45 | 1004.5 |
| 20260505234556 | 57 | 0 | 3.0 | 19.0 | 0.00 | 0.01 | 0.01 | 45 | 1004.4 |
| 20260505234053 | 57 | 267 | 4.0 | 19.0 | 0.00 | 0.01 | 0.01 | 45 | 1004.3 |
| 20260505233554 | 57 | 286 | 3.0 | 13.0 | 0.00 | 0.01 | 0.01 | 45 | 1004.3 |
| 20260505233058 | 57 | 309 | 4.0 | 14.0 | 0.00 | 0.01 | 0.01 | 45 | 1004.4 |
| 20260505232553 | 58 | 315 | 4.0 | 14.0 | 0.00 | 0.01 | 0.01 | 46 | 1004.4 |
| 20260505232056 | 58 | 267 | 4.0 | 13.0 | 0.00 | 0.01 | 0.01 | 45 | 1004.2 |
| 20260505231607 | 58 | 306 | 3.0 | 12.0 | 0.00 | 0.01 | 0.01 | 46 | 1004.1 |
| 20260505231053 | 58 | 310 | 3.0 | 12.0 | 0.00 | 0.01 | 0.01 | 46 | 1003.9 |
| 20260505230550 | 58 | 286 | 1.0 | 11.0 | 0.00 | 0.01 | 0.01 | 47 | 1003.6 |
| 20260505230055 | 58 | 293 | 2.0 | 12.0 | 0.00 | 0.01 | 0.01 | 47 | 1003.6 |
| 20260505225553 | 58 | 279 | 4.0 | 14.0 | 0.00 | 0.01 | 0.01 | 49 | 1003.5 |
| 20260505225053 | 58 | 329 | 2.0 | 14.0 | 0.00 | 0.01 | 0.01 | 51 | 1003.5 |
| 20260505224556 | 58 | 309 | 3.0 | 12.0 | 0.00 | 0.01 | 0.01 | 51 | 1003.4 |
| 20260505224050 | 58 | 259 | 4.0 | 13.0 | 0.00 | 0.01 | 0.01 | 51 | 1003.4 |
| 20260505223550 | 58 | 288 | 4.0 | 14.0 | 0.00 | 0.01 | 0.01 | 51 | 1003.5 |
| 20260505223058 | 59 | 254 | 4.0 | 15.0 | 0.00 | 0.01 | 0.01 | 52 | 1003.5 |
| 20260505222557 | 59 | 296 | 3.0 | 15.0 | 0.00 | 0.01 | 0.01 | 52 | 1003.3 |
| 20260505222053 | 59 | 314 | 2.0 | 14.0 | 0.00 | 0.01 | 0.01 | 53 | 1003.1 |
| 20260505221600 | 60 | 319 | 4.0 | 14.0 | 0.00 | 0.01 | 0.01 | 52 | 1003.1 |
| 20260505221053 | 60 | 294 | 1.0 | 14.0 | 0.00 | 0.01 | 0.01 | 48 | 1003.2 |
| 20260505220552 | 61 | 306 | 5.0 | 16.0 | 0.00 | 0.01 | 0.01 | 46 | 1003.1 |
| 20260505220059 | 61 | 323 | 4.0 | 16.0 | 0.00 | 0.01 | 0.01 | 46 | 1002.9 |